TimeEDT,TemperatureF,Dew PointF,Humidity,Sea Level PressureIn,VisibilityMPH,Wind Direction,Wind SpeedMPH,Gust SpeedMPH,PrecipitationIn,Events,Conditions,WindDirDegrees,DateUTC
12:15 AM,59.9,59.5,99,30.23,4.0,Calm,Calm,-,N/A,,Clear,0,2013-08-27 04:15:00
12:35 AM,59.2,58.8,99,30.23,3.0,Calm,Calm,-,N/A,,Scattered Clouds,0,2013-08-27 04:35:00
12:55 AM,59.0,58.6,99,30.23,3.0,Calm,Calm,-,N/A,,Clear,0,2013-08-27 04:55:00
1:15 AM,59.2,58.6,98,30.23,4.0,Calm,Calm,-,N/A,,Clear,0,2013-08-27 05:15:00
1:35 AM,58.6,58.3,99,30.23,1.2,Calm,Calm,-,N/A,,Mist,0,2013-08-27 05:35:00
1:55 AM,58.3,57.9,99,30.23,5.0,Calm,Calm,-,N/A,,Scattered Clouds,0,2013-08-27 05:55:00
2:15 AM,57.7,57.2,98,30.22,1.8,Calm,Calm,-,N/A,,Mostly Cloudy,0,2013-08-27 06:15:00
2:35 AM,58.5,58.3,99,30.22,0.2,Calm,Calm,-,N/A,Fog,Fog,0,2013-08-27 06:35:00
2:55 AM,58.8,58.5,99,30.22,0.2,Calm,Calm,-,N/A,Fog,Fog,0,2013-08-27 06:55:00
3:15 AM,58.3,58.3,100,30.21,0.8,Calm,Calm,-,N/A,,Overcast,0,2013-08-27 07:15:00
3:35 AM,58.8,58.6,99,30.21,0.5,Calm,Calm,-,N/A,Fog,Fog,0,2013-08-27 07:35:00
3:55 AM,58.5,58.3,99,30.21,0.5,Calm,Calm,-,N/A,Fog,Fog,0,2013-08-27 07:55:00
4:15 AM,59.0,59.0,100,30.21,0.2,Calm,Calm,-,N/A,Fog,Fog,0,2013-08-27 08:15:00
4:35 AM,58.6,58.5,99,30.20,0.2,Calm,Calm,-,N/A,Fog,Fog,0,2013-08-27 08:35:00
4:55 AM,58.5,58.5,100,30.21,0.2,Calm,Calm,-,N/A,Fog,Fog,0,2013-08-27 08:55:00
5:15 AM,58.3,58.3,100,30.20,1.0,Calm,Calm,-,N/A,,Overcast,0,2013-08-27 09:15:00
5:35 AM,58.5,58.5,100,30.20,0.5,Calm,Calm,-,N/A,Fog,Fog,0,2013-08-27 09:35:00
5:55 AM,58.5,58.5,100,30.20,0.2,Calm,Calm,-,N/A,Fog,Fog,0,2013-08-27 09:55:00
6:15 AM,58.3,58.3,100,30.20,0.2,Calm,Calm,-,N/A,Fog,Fog,0,2013-08-27 10:15:00
6:35 AM,58.3,58.3,100,30.20,0.8,Calm,Calm,-,N/A,,Overcast,0,2013-08-27 10:35:00
6:55 AM,58.3,58.3,100,30.20,0.2,Calm,Calm,-,N/A,Fog,Fog,0,2013-08-27 10:55:00
7:15 AM,58.3,58.3,100,30.20,0.5,Calm,Calm,-,N/A,Fog,Fog,0,2013-08-27 11:15:00
7:35 AM,58.3,58.3,100,30.21,0.2,Calm,Calm,-,N/A,Fog,Fog,0,2013-08-27 11:35:00
7:55 AM,58.3,58.3,100,30.21,0.2,Calm,Calm,-,N/A,Fog,Fog,0,2013-08-27 11:55:00
8:15 AM,58.3,58.3,100,30.21,0.2,Calm,Calm,-,N/A,Fog,Fog,0,2013-08-27 12:15:00
8:35 AM,58.6,58.6,100,30.21,0.2,Calm,Calm,-,N/A,Fog,Fog,0,2013-08-27 12:35:00
8:55 AM,59.2,59.2,100,30.21,0.2,Calm,Calm,-,N/A,Fog,Fog,0,2013-08-27 12:55:00
9:15 AM,59.7,59.7,100,30.21,0.2,Calm,Calm,-,N/A,Fog,Fog,0,2013-08-27 13:15:00
9:35 AM,60.8,60.8,100,30.21,1.0,Calm,Calm,-,N/A,,Overcast,0,2013-08-27 13:35:00
9:55 AM,62.2,62.2,100,30.20,3.0,Calm,Calm,-,N/A,,Overcast,0,2013-08-27 13:55:00
10:15 AM,63.9,63.1,97,30.20,10.0,WSW,4.6,-,N/A,,Scattered Clouds,240,2013-08-27 14:15:00
10:35 AM,65.8,64.0,94,30.20,10.0,Calm,Calm,-,N/A,,Mostly Cloudy,0,2013-08-27 14:35:00
10:55 AM,68.2,64.8,89,30.20,10.0,Calm,Calm,-,N/A,,Mostly Cloudy,0,2013-08-27 14:55:00
11:15 AM,68.5,65.7,90,30.20,10.0,Calm,Calm,-,N/A,,Mostly Cloudy,0,2013-08-27 15:15:00
11:35 AM,72.5,65.7,79,30.19,10.0,Calm,Calm,-,N/A,,Mostly Cloudy,0,2013-08-27 15:35:00
11:55 AM,76.1,66.0,71,30.19,10.0,NE,4.6,-,N/A,,Scattered Clouds,40,2013-08-27 15:55:00
12:15 PM,78.8,65.1,63,30.18,10.0,East,5.8,-,N/A,,Clear,80,2013-08-27 16:15:00
12:35 PM,79.5,64.8,60,30.17,10.0,NE,9.2,-,N/A,,Clear,50,2013-08-27 16:35:00
12:55 PM,79.2,64.0,60,30.17,10.0,ENE,6.9,-,N/A,,Clear,60,2013-08-27 16:55:00
1:15 PM,80.1,64.4,59,30.16,10.0,NNE,4.6,-,N/A,,Clear,20,2013-08-27 17:15:00
1:35 PM,79.0,64.0,60,30.15,10.0,NE,6.9,-,N/A,,Scattered Clouds,40,2013-08-27 17:35:00
1:55 PM,80.4,65.3,60,30.15,10.0,Calm,Calm,-,N/A,,Scattered Clouds,0,2013-08-27 17:55:00
2:15 PM,81.1,65.5,59,30.15,10.0,East,5.8,-,N/A,,Scattered Clouds,90,2013-08-27 18:15:00
2:35 PM,79.5,65.3,62,30.14,10.0,ENE,4.6,-,N/A,,Mostly Cloudy,60,2013-08-27 18:35:00
2:55 PM,81.0,65.3,59,30.13,10.0,Calm,Calm,-,N/A,,Mostly Cloudy,0,2013-08-27 18:55:00
3:15 PM,81.3,65.5,58,30.13,10.0,North,4.6,-,N/A,,Scattered Clouds,360,2013-08-27 19:15:00
3:35 PM,81.7,66.2,59,30.12,10.0,NNE,6.9,-,N/A,,Scattered Clouds,30,2013-08-27 19:35:00
3:55 PM,80.8,65.5,59,30.11,10.0,North,5.8,-,N/A,,Clear,10,2013-08-27 19:55:00
4:15 PM,81.0,65.5,59,30.11,10.0,North,8.1,-,N/A,,Clear,360,2013-08-27 20:15:00
4:35 PM,80.1,65.3,61,30.11,10.0,North,4.6,-,N/A,,Clear,350,2013-08-27 20:35:00
4:55 PM,78.8,65.5,64,30.11,10.0,North,3.5,-,N/A,,Clear,360,2013-08-27 20:55:00
5:15 PM,79.0,66.6,66,30.11,10.0,NNE,6.9,-,N/A,,Clear,30,2013-08-27 21:15:00
5:35 PM,79.7,65.3,61,30.11,10.0,Calm,Calm,-,N/A,,Scattered Clouds,0,2013-08-27 21:35:00
5:55 PM,80.1,67.3,65,30.11,10.0,Calm,Calm,-,N/A,,Scattered Clouds,0,2013-08-27 21:55:00
6:15 PM,81.0,66.6,61,30.10,10.0,Calm,Calm,-,N/A,,Clear,0,2013-08-27 22:15:00
6:35 PM,80.8,67.1,63,30.10,10.0,Calm,Calm,-,N/A,,Clear,0,2013-08-27 22:35:00
6:55 PM,80.1,66.2,62,30.09,10.0,Calm,Calm,-,N/A,,Clear,0,2013-08-27 22:55:00
7:15 PM,76.6,67.6,74,30.09,10.0,Calm,Calm,-,N/A,,Clear,0,2013-08-27 23:15:00
7:35 PM,74.7,68.9,82,30.10,10.0,Calm,Calm,-,N/A,,Clear,0,2013-08-27 23:35:00
7:55 PM,73.4,67.5,82,30.10,10.0,Calm,Calm,-,N/A,,Clear,0,2013-08-27 23:55:00
8:15 PM,70.9,67.1,88,30.11,10.0,NNW,4.6,-,N/A,,Clear,340,2013-08-28 00:15:00
8:35 PM,69.3,67.1,93,30.11,10.0,Calm,Calm,-,N/A,,Clear,0,2013-08-28 00:35:00
8:55 PM,68.7,66.6,93,30.11,10.0,Calm,Calm,-,N/A,,Clear,0,2013-08-28 00:55:00
9:15 PM,67.3,65.8,95,30.11,7.0,Calm,Calm,-,N/A,,Clear,0,2013-08-28 01:15:00
9:35 PM,67.6,65.7,93,30.12,7.0,Calm,Calm,-,N/A,,Clear,0,2013-08-28 01:35:00
9:55 PM,67.1,65.3,94,30.12,7.0,Calm,Calm,-,N/A,,Clear,0,2013-08-28 01:55:00
10:15 PM,65.8,64.9,97,30.13,5.0,Calm,Calm,-,N/A,,Clear,0,2013-08-28 02:15:00
10:35 PM,66.2,65.1,96,30.14,7.0,Calm,Calm,-,N/A,,Clear,0,2013-08-28 02:35:00
10:55 PM,65.8,64.6,96,30.14,7.0,Calm,Calm,-,N/A,,Clear,0,2013-08-28 02:55:00
11:15 PM,64.9,64.4,98,30.14,4.0,Calm,Calm,-,N/A,,Clear,0,2013-08-28 03:15:00
11:35 PM,64.8,64.2,98,30.14,5.0,Calm,Calm,-,N/A,,Clear,0,2013-08-28 03:35:00
11:55 PM,64.6,64.2,99,30.14,3.0,Calm,Calm,-,N/A,,Clear,0,2013-08-28 03:55:00